TimeCST,TemperatureF,Dew PointF,Humidity,Sea Level PressureIn,VisibilityMPH,Wind Direction,Wind SpeedMPH,Gust SpeedMPH,PrecipitationIn,Events,Conditions,WindDirDegrees,DateUTC
12:15 AM,3.0,-1.3,82,30.48,10.0,WNW,6.9,-,N/A,,Clear,290,2014-02-26 06:15:00
12:35 AM,3.0,-0.8,84,30.48,10.0,West,6.9,-,N/A,,Clear,280,2014-02-26 06:35:00
12:55 AM,2.1,-1.5,85,30.47,10.0,West,5.8,-,N/A,,Clear,280,2014-02-26 06:55:00
1:15 AM,1.6,-1.5,87,30.47,10.0,West,6.9,-,N/A,,Clear,280,2014-02-26 07:15:00
1:35 AM,1.0,-2.2,86,30.45,10.0,WNW,5.8,-,N/A,,Clear,300,2014-02-26 07:35:00
1:55 AM,0.5,-2.4,88,30.45,10.0,West,4.6,-,N/A,,Clear,270,2014-02-26 07:55:00
2:15 AM,1.9,-1.3,86,30.45,10.0,West,6.9,-,N/A,,Clear,270,2014-02-26 08:15:00
2:35 AM,0.9,-2.4,86,30.43,10.0,WNW,5.8,-,N/A,,Clear,300,2014-02-26 08:35:00
2:55 AM,-0.6,-3.5,88,30.42,10.0,West,5.8,-,N/A,,Clear,280,2014-02-26 08:55:00
3:15 AM,-0.8,-3.8,87,30.41,10.0,WNW,4.6,-,N/A,,Clear,290,2014-02-26 09:15:00
3:35 AM,-1.3,-4.2,88,30.39,10.0,NW,3.5,-,N/A,,Clear,310,2014-02-26 09:35:00
3:55 AM,-1.5,-4.5,87,30.37,10.0,West,5.8,-,N/A,,Clear,280,2014-02-26 09:55:00
4:15 AM,-1.3,-4.0,88,30.36,10.0,West,4.6,-,N/A,,Clear,280,2014-02-26 10:15:00
4:35 AM,-1.3,-4.0,88,30.34,10.0,WNW,5.8,-,N/A,,Clear,290,2014-02-26 10:35:00
4:55 AM,-1.3,-4.2,88,30.34,10.0,West,3.5,-,N/A,,Clear,260,2014-02-26 10:55:00
5:15 AM,-1.5,-4.0,89,30.33,10.0,West,3.5,-,N/A,,Clear,260,2014-02-26 11:15:00
5:35 AM,-1.1,-3.8,88,30.33,10.0,Calm,Calm,-,N/A,,Clear,0,2014-02-26 11:35:00
5:55 AM,-0.2,-2.9,88,30.33,10.0,WSW,5.8,-,N/A,,Clear,240,2014-02-26 11:55:00
6:20 AM,0.5,-2.4,88,30.31,10.0,South,3.5,-,N/A,,Clear,180,2014-02-26 12:20:00
6:35 AM,0.1,-2.2,90,30.31,10.0,SSW,5.8,-,N/A,,Clear,210,2014-02-26 12:35:00
6:55 AM,0.5,-2.4,88,30.29,10.0,SW,4.6,-,N/A,,Clear,220,2014-02-26 12:55:00
7:15 AM,1.2,-2.0,86,30.28,10.0,SW,3.5,-,N/A,,Clear,230,2014-02-26 13:15:00
7:35 AM,2.1,-1.3,86,30.28,10.0,Calm,Calm,-,N/A,,Clear,0,2014-02-26 13:35:00
7:55 AM,3.6,-0.2,84,30.27,10.0,SSW,4.6,-,N/A,,Clear,210,2014-02-26 13:55:00
8:15 AM,5.0,0.3,81,30.27,10.0,SW,6.9,-,N/A,,Clear,220,2014-02-26 14:15:00
8:35 AM,6.8,2.3,82,30.26,10.0,SW,6.9,-,N/A,,Clear,220,2014-02-26 14:35:00
8:55 AM,8.1,3.6,82,30.25,10.0,SSW,6.9,-,N/A,,Clear,210,2014-02-26 14:55:00
9:15 AM,9.7,5.2,82,30.24,10.0,SSW,5.8,-,N/A,,Clear,200,2014-02-26 15:15:00
9:35 AM,12.7,7.2,78,30.23,10.0,SSW,5.8,-,N/A,,Clear,210,2014-02-26 15:35:00
9:55 AM,13.8,7.7,77,30.21,10.0,SSW,11.5,16.1,N/A,,Clear,210,2014-02-26 15:55:00
10:15 AM,15.6,8.4,73,30.19,10.0,SW,12.7,17.3,N/A,,Clear,220,2014-02-26 16:15:00
10:35 AM,17.4,8.8,69,30.18,10.0,SW,12.7,18.4,N/A,,Clear,220,2014-02-26 16:35:00
11:00 AM,19.2,9.3,65,30.17,10.0,SW,13.8,19.6,N/A,,Clear,230,2014-02-26 17:00:00
11:15 AM,20.1,9.7,64,30.15,10.0,SW,17.3,20.7,N/A,,Clear,220,2014-02-26 17:15:00
11:35 AM,21.7,11.1,64,30.14,10.0,SW,10.4,-,N/A,,Clear,230,2014-02-26 17:35:00
11:55 AM,22.8,12.4,64,30.12,10.0,SW,15.0,-,N/A,,Clear,230,2014-02-26 17:55:00
12:15 PM,24.4,13.1,62,30.10,10.0,SW,16.1,28.8,N/A,,Clear,220,2014-02-26 18:15:00
12:35 PM,25.9,14.0,61,30.08,10.0,SW,18.4,26.5,N/A,,Clear,220,2014-02-26 18:35:00
12:55 PM,28.2,15.3,58,30.05,10.0,SW,20.7,26.5,N/A,,Clear,230,2014-02-26 18:55:00
1:15 PM,29.3,16.2,58,30.03,10.0,WSW,19.6,29.9,N/A,,Clear,240,2014-02-26 19:15:00
1:35 PM,30.9,16.9,56,30.01,10.0,WSW,19.6,25.3,N/A,,Clear,250,2014-02-26 19:35:00
1:55 PM,32.0,15.6,51,29.99,10.0,WSW,20.7,26.5,N/A,,Clear,250,2014-02-26 19:55:00
2:15 PM,32.0,16.7,53,29.98,10.0,WSW,20.7,28.8,N/A,,Clear,250,2014-02-26 20:15:00
2:35 PM,32.9,16.9,52,29.97,10.0,West,23.0,26.5,N/A,,Clear,260,2014-02-26 20:35:00
2:55 PM,32.9,16.0,50,29.96,10.0,West,19.6,27.6,N/A,,Clear,270,2014-02-26 20:55:00
3:15 PM,34.0,16.2,48,29.95,10.0,West,19.6,24.2,N/A,,Clear,260,2014-02-26 21:15:00
3:35 PM,34.0,16.3,49,29.94,10.0,West,16.1,-,N/A,,Clear,260,2014-02-26 21:35:00
3:55 PM,34.2,17.2,50,29.93,10.0,WSW,20.7,26.5,N/A,,Clear,250,2014-02-26 21:55:00
4:15 PM,34.5,16.9,49,29.92,10.0,West,21.9,-,N/A,,Clear,260,2014-02-26 22:15:00
4:35 PM,34.7,16.3,47,29.91,10.0,West,19.6,23.0,N/A,,Clear,270,2014-02-26 22:35:00
4:55 PM,34.7,16.3,47,29.91,10.0,WSW,17.3,24.2,N/A,,Clear,250,2014-02-26 22:55:00
5:15 PM,34.7,16.7,48,29.91,10.0,West,13.8,24.2,N/A,,Clear,260,2014-02-26 23:15:00
5:35 PM,34.7,16.9,48,29.90,10.0,West,17.3,25.3,N/A,,Clear,260,2014-02-26 23:35:00
5:55 PM,33.8,16.0,48,29.90,10.0,West,13.8,19.6,N/A,,Clear,260,2014-02-26 23:55:00
6:15 PM,32.9,15.3,48,29.89,10.0,West,12.7,20.7,N/A,,Clear,260,2014-02-27 00:15:00
6:35 PM,32.5,14.7,48,29.89,10.0,WSW,13.8,-,N/A,,Clear,250,2014-02-27 00:35:00
6:55 PM,32.0,14.9,49,29.89,10.0,West,12.7,-,N/A,,Clear,260,2014-02-27 00:55:00
7:15 PM,31.8,15.6,51,29.90,10.0,West,10.4,-,N/A,,Clear,270,2014-02-27 01:15:00
7:35 PM,28.2,17.1,63,29.91,10.0,WNW,8.1,-,N/A,,Clear,290,2014-02-27 01:35:00
7:55 PM,27.5,17.6,66,29.92,10.0,WNW,9.2,-,N/A,,Clear,290,2014-02-27 01:55:00
8:15 PM,25.7,16.7,69,29.92,10.0,WNW,12.7,-,N/A,,Clear,290,2014-02-27 02:15:00
8:35 PM,25.2,16.3,69,29.92,10.0,West,10.4,-,N/A,,Clear,280,2014-02-27 02:35:00
8:55 PM,25.9,15.4,65,29.93,10.0,West,11.5,-,N/A,,Clear,280,2014-02-27 02:55:00
9:15 PM,24.3,15.4,69,29.94,10.0,West,10.4,-,N/A,,Clear,280,2014-02-27 03:15:00
9:35 PM,22.1,14.9,74,29.94,10.0,West,8.1,-,N/A,,Clear,280,2014-02-27 03:35:00
9:55 PM,21.7,14.9,75,29.96,10.0,West,9.2,-,N/A,,Clear,280,2014-02-27 03:55:00
10:15 PM,21.7,14.9,75,29.96,10.0,WNW,8.1,-,N/A,,Clear,290,2014-02-27 04:15:00
10:35 PM,19.2,14.2,81,29.97,10.0,NW,5.8,-,N/A,,Clear,310,2014-02-27 04:35:00
10:55 PM,23.5,15.4,71,29.98,10.0,NNW,9.2,-,N/A,,Clear,330,2014-02-27 04:55:00
11:15 PM,23.4,14.4,68,29.99,10.0,NNW,10.4,-,N/A,,Clear,340,2014-02-27 05:15:00
11:35 PM,23.0,14.0,68,30.00,10.0,North,11.5,18.4,N/A,,Clear,350,2014-02-27 05:35:00
11:55 PM,21.4,10.8,64,30.01,10.0,North,9.2,19.6,N/A,,Clear,350,2014-02-27 05:55:00